Regional Weather Roundup
Issued by NWS

Home | Current Version | Previous Version | Graphics & Text | Print | Product List | Glossary On
Versions: 1 2 3 4 5 6 7 8 9 10 11 12 13 14 15 16 17 18 19 20 21 22 23 24 25 26 27 28 29 30 31 32 33 34 35 36 37 38 39 40 41 42 43 44 45 46 47 48 49 50
000
ASUS45 KSLC 282110
RWRUT

UTAH REGIONAL WEATHER ROUNDUP
NATIONAL WEATHER SERVICE SALT LAKE CITY UT
300 PM MDT THU AUG 28 2014

UTZ001>011-023>025-282200-

NORTHERN UTAH

CITY           SKY/WX    TMP DP  RH WIND       PRES   REMARKS
HILL AFB         N/A     78  48  34 VRB7      30.20F
LOGAN          SUNNY     79  51  37 VRB3      30.16F
OGDEN            N/A     80  47  31 VRB3      30.17F
PROVO AIRPORT  MOSUNNY   77  45  31 VRB5      30.20F
SALT LAKE CITY   N/A     83  42  23 W6        30.15F
VERNAL         PTSUNNY   72  53  51 CALM      30.21F
WENDOVER         N/A     82  43  24 SE5       30.15F
HEBER CITY       N/A     77  45  31 W5        30.24F
WEST JORDAN    SUNNY     82  54  36 CALM      30.19F

$$

UTZ012>022-026-027-282200-

SOUTHERN UTAH

CITY           SKY/WX    TMP DP  RH WIND       PRES   REMARKS
BRYCE CANYON     N/A     70  40  33 VRB3      30.36F
CEDAR CITY       N/A     81  33  17 VRB5      30.23F
MILFORD          N/A     85  36  17 N14G21    30.19F
MOAB/CYNLANDS  SUNNY     81  45  28 VRB6      30.14F
PRICE          PTSUNNY   78  37  22 CALM      30.23F
ST GEORGE        N/A     91  46  21 NW8       30.05F

$$

REGIONAL REPORTS     COLORADO/ARIZONA

CITY           SKY/WX    TMP DP  RH WIND       PRES   REMARKS
CRAIG, CO      SUNNY     68  47  46 VRB3      30.25F
GRAND JUNCTION PTSUNNY   74  51  44 SE8       30.20F
RIFLE          MOSUNNY   70  52  52 N5        30.22F
MONTROSE       SUNNY     70  46  42 CALM      30.28F
CORTEZ         MOSUNNY   76  45  33 N13G21    30.23F
PAGE, AZ         N/A     87  41  19 NE9       30.14F
GRAND CANYON     N/A     77  37  23 VRB7      30.31F
KINGMAN          N/A     93  33  12 E6        30.08F
FLAGSTAFF        N/A     72  41  32 CALM      30.32F

$$

REGIONAL REPORTS    NEVADA/IDAHO/WYOMING

CITY           SKY/WX    TMP DP  RH WIND       PRES   REMARKS
LAS VEGAS, NV    N/A     98  34  10 SE5       29.94F HX  92
ELY              N/A     80  29  15 N8G20     30.28F
ELKO             N/A     87  30  13 S8        30.18F
POCATELLO, ID  MOSUNNY   86  41  20 SW14G21   30.13F
BURLEY           N/A     84  46  26 W8        30.10F
EVANSTON, WY   MOSUNNY   71  41  33 VRB5      30.32F
ROCK SPRINGS     N/A     73  39  29 NW17G25   30.26F

$$



USA.gov is the U.S. government's official web portal to all federal, state and local government web resources and services.